When you browse on this site, cookies collect data to enhance your experience and personalize the content and advertising you see.
Visit our Privacy Policy to learn more. By continuing to use the site, you agree to this use of cookies and data.
  • In United Kingdom
  • List of Countries
  • For 7 days
  • Water Temperature
  • Satellite Maps
  • Weather Map
  • Weather Widgets
  • user-avatar
    Login

    Hourly Weather Solden

    Today, 20 February, Wednesday

    Time Temperature Precipitation Wind Pressure Humidity
    00:00 -8°C° 0 mm 2 mps 581 mmHg 79%
    01:00 -9°C° 0 mm 2 mps 581 mmHg 79%
    02:00 -9°C° 0 mm 2 mps 581 mmHg 79%
    03:00 -9°C° 0 mm 2 mps 581 mmHg 79%
    04:00 -9°C° 0 mm 2 mps 581 mmHg 79%
    05:00 -9°C° 0 mm 2 mps 581 mmHg 79%
    06:00 -9°C° 0 mm 2 mps 581 mmHg 78%
    07:00 -9°C° 0 mm 2 mps 581 mmHg 78%
    08:00 -7°C° 0 mm 2 mps 582 mmHg 76%
    09:00 -3°C° 0 mm 1 mps 583 mmHg 74%
    10:00 -1°C° 0 mm 1 mps 584 mmHg 72%
    11:00 0°C° 0 mm 1 mps 585 mmHg 72%
    12:00 +1°C° 0 mm 1 mps 585 mmHg 72%
    13:00 +1°C° 0 mm 0 mps 586 mmHg 72%
    14:00 +1°C° 0 mm 0 mps 585 mmHg 73%
    15:00 0°C° 0 mm 0 mps 585 mmHg 74%
    16:00 0°C° 0 mm 0 mps 585 mmHg 75%
    17:00 0°C° 0 mm 1 mps 585 mmHg 77%
    18:00 -2°C° 0 mm 1 mps 584 mmHg 79%
    19:00 -3°C° 0 mm 1 mps 584 mmHg 81%
    20:00 -4°C° 0 mm 1 mps 584 mmHg 82%
    21:00 -6°C° 0 mm 2 mps 584 mmHg 82%
    22:00 -7°C° 0 mm 2 mps 584 mmHg 83%
    23:00 -7°C° 0 mm 2 mps 584 mmHg 81%

    Tomorrow, 21 February, Thursday

    Time Temperature Precipitation Wind Pressure Humidity
    00:00 -7°C° 0 mm 2 mps 584 mmHg 80%
    01:00 -7°C° 0 mm 2 mps 584 mmHg 78%
    02:00 -7°C° 0 mm 2 mps 584 mmHg 76%
    03:00 -7°C° 0 mm 2 mps 584 mmHg 74%
    04:00 -8°C° 0 mm 2 mps 584 mmHg 72%
    05:00 -8°C° 0 mm 2 mps 584 mmHg 71%
    06:00 -8°C° 0 mm 2 mps 584 mmHg 69%
    07:00 -8°C° 0 mm 2 mps 584 mmHg 68%
    08:00 -6°C° 0 mm 2 mps 586 mmHg 67%
    09:00 -2°C° 0 mm 1 mps 587 mmHg 66%
    10:00 0°C° 0 mm 1 mps 588 mmHg 65%
    11:00 +1°C° 0 mm 1 mps 588 mmHg 65%
    12:00 +3°C° 0 mm 1 mps 588 mmHg 65%
    13:00 +4°C° 0 mm 1 mps 589 mmHg 65%
    14:00 +3°C° 0 mm 1 mps 589 mmHg 67%
    15:00 +3°C° 0 mm 1 mps 588 mmHg 69%
    16:00 +3°C° 0 mm 1 mps 588 mmHg 70%
    17:00 +1°C° 0 mm 1 mps 588 mmHg 73%
    18:00 -3°C° 0 mm 2 mps 587 mmHg 76%
    19:00 -4°C° 0 mm 2 mps 587 mmHg 78%
    20:00 -5°C° 0 mm 2 mps 587 mmHg 77%
    21:00 -6°C° 0 mm 3 mps 587 mmHg 75%
    22:00 -6°C° 0 mm 3 mps 587 mmHg 74%
    23:00 -7°C° 0 mm 3 mps 587 mmHg 72%

    Day after tomorrow, 22 February, Friday

    Time Temperature Precipitation Wind Pressure Humidity
    00:00 -7°C° 0 mm 3 mps 587 mmHg 70%
    01:00 -7°C° 0 mm 3 mps 587 mmHg 67%
    02:00 -7°C° 0 mm 3 mps 586 mmHg 68%
    03:00 -7°C° 0 mm 3 mps 586 mmHg 68%
    04:00 -8°C° 0 mm 3 mps 586 mmHg 68%
    05:00 -8°C° 0 mm 3 mps 586 mmHg 69%
    06:00 -8°C° 0 mm 3 mps 586 mmHg 70%
    07:00 -8°C° 0 mm 3 mps 586 mmHg 71%
    08:00 -6°C° 0 mm 3 mps 587 mmHg 69%
    09:00 -4°C° 0 mm 3 mps 588 mmHg 66%
    10:00 -2°C° 0 mm 3 mps 589 mmHg 64%
    11:00 -1°C° 0 mm 3 mps 589 mmHg 65%
    12:00 0°C° 0 mm 3 mps 590 mmHg 65%
    13:00 +1°C° 0 mm 3 mps 590 mmHg 65%
    14:00 +1°C° 0 mm 3 mps 590 mmHg 66%
    15:00 0°C° 0 mm 3 mps 589 mmHg 68%
    16:00 0°C° 0 mm 3 mps 589 mmHg 69%
    17:00 -2°C° 0 mm 3 mps 588 mmHg 73%
    18:00 -4°C° 0 mm 3 mps 588 mmHg 77%
    19:00 -6°C° 0 mm 3 mps 587 mmHg 81%
    20:00 -7°C° 0 mm 3 mps 587 mmHg 79%
    21:00 -7°C° 0 mm 3 mps 587 mmHg 78%
    22:00 -6°C° 0 mm 2 mps 587 mmHg 76%
    23:00 -6°C° 0 mm 2 mps 587 mmHg 74%

    23 February, Saturday

    Time Temperature Precipitation Wind Pressure Humidity
    00:00 -6°C° 0 mm 2 mps 587 mmHg 72%
    01:00 -6°C° 0 mm 2 mps 587 mmHg 69%
    02:00 -6°C° 0 mm 2 mps 587 mmHg 68%
    03:00 -7°C° 0 mm 2 mps 587 mmHg 66%
    04:00 -7°C° 0 mm 2 mps 587 mmHg 65%
    05:00 -6°C° 0 mm 2 mps 587 mmHg 63%
    06:00 -6°C° 0 mm 2 mps 587 mmHg 60%
    07:00 -6°C° 0 mm 2 mps 587 mmHg 58%
    08:00 -5°C° 0 mm 2 mps 588 mmHg 56%
    09:00 -1°C° 0 mm 1 mps 589 mmHg 55%
    10:00 +1°C° 0 mm 1 mps 590 mmHg 53%
    11:00 +2°C° 0 mm 1 mps 591 mmHg 53%
    12:00 +3°C° 0 mm 1 mps 591 mmHg 53%
    13:00 +4°C° 0 mm 1 mps 591 mmHg 53%
    14:00 +4°C° 0 mm 1 mps 591 mmHg 55%
    15:00 +4°C° 0 mm 1 mps 591 mmHg 57%
    16:00 +4°C° 0 mm 1 mps 590 mmHg 59%
    17:00 +2°C° 0 mm 1 mps 590 mmHg 61%
    18:00 -2°C° 0 mm 2 mps 589 mmHg 62%
    19:00 -4°C° 0 mm 2 mps 589 mmHg 63%
    20:00 -4°C° 0 mm 2 mps 589 mmHg 59%
    21:00 -4°C° 0 mm 2 mps 589 mmHg 55%
    22:00 -5°C° 0 mm 2 mps 589 mmHg 51%
    23:00 -5°C° 0 mm 2 mps 588 mmHg 50%

    24 February, Sunday

    Time Temperature Precipitation Wind Pressure Humidity
    00:00 -5°C° 0 mm 2 mps 588 mmHg 49%
    01:00 -5°C° 0 mm 2 mps 588 mmHg 47%
    02:00 -5°C° 0 mm 2 mps 588 mmHg 49%
    03:00 -5°C° 0 mm 2 mps 588 mmHg 50%
    04:00 -5°C° 0 mm 2 mps 587 mmHg 52%
    05:00 -5°C° 0 mm 2 mps 587 mmHg 54%
    06:00 -5°C° 0 mm 2 mps 587 mmHg 57%
    07:00 -6°C° 0 mm 3 mps 587 mmHg 60%
    08:00 -3°C° 0 mm 2 mps 588 mmHg 59%
    09:00 -1°C° 0 mm 2 mps 589 mmHg 58%
    10:00 +1°C° 0 mm 2 mps 590 mmHg 58%
    11:00 +2°C° 0 mm 2 mps 590 mmHg 57%
    12:00 +3°C° 0 mm 2 mps 591 mmHg 56%
    13:00 +4°C° 0 mm 2 mps 591 mmHg 55%
    14:00 +4°C° 0 mm 2 mps 591 mmHg 55%
    15:00 +4°C° 0 mm 2 mps 590 mmHg 56%
    16:00 +3°C° 0 mm 2 mps 590 mmHg 57%
    17:00 +1°C° 0 mm 2 mps 589 mmHg 59%
    18:00 -2°C° 0 mm 2 mps 589 mmHg 62%
    19:00 -4°C° 0 mm 2 mps 588 mmHg 64%
    20:00 -4°C° 0 mm 2 mps 588 mmHg 59%
    21:00 -4°C° 0 mm 2 mps 588 mmHg 53%
    22:00 -5°C° 0 mm 2 mps 588 mmHg 48%
    23:00 -5°C° 0 mm 2 mps 588 mmHg 45%

    25 February, Monday

    Time Temperature Precipitation Wind Pressure Humidity
    00:00 -5°C° 0 mm 2 mps 588 mmHg 42%
    01:00 -5°C° 0 mm 2 mps 588 mmHg 39%
    02:00 -5°C° 0 mm 2 mps 588 mmHg 38%
    03:00 -5°C° 0 mm 2 mps 588 mmHg 38%
    04:00 -6°C° 0 mm 2 mps 588 mmHg 38%
    05:00 -6°C° 0 mm 2 mps 588 mmHg 38%
    06:00 -6°C° 0 mm 2 mps 588 mmHg 38%
    07:00 -6°C° 0 mm 2 mps 588 mmHg 38%
    08:00 -2°C° 0 mm 1 mps 589 mmHg 38%
    09:00 0°C° 0 mm 1 mps 589 mmHg 38%
    10:00 +2°C° 0 mm 1 mps 590 mmHg 38%
    11:00 +3°C° 0 mm 1 mps 591 mmHg 37%
    12:00 +3°C° 0 mm 1 mps 591 mmHg 37%
    13:00 +4°C° 0 mm 1 mps 591 mmHg 37%
    14:00 +4°C° 0 mm 1 mps 590 mmHg 40%
    15:00 +3°C° 0 mm 1 mps 590 mmHg 43%
    16:00 +3°C° 0 mm 1 mps 590 mmHg 46%
    17:00 +1°C° 0 mm 1 mps 589 mmHg 51%
    18:00 -1°C° 0 mm 1 mps 589 mmHg 55%
    19:00 -2°C° 0 mm 1 mps 588 mmHg 59%
    20:00 -5°C° 0 mm 2 mps 588 mmHg 58%
    21:00 -5°C° 0 mm 2 mps 588 mmHg 57%
    22:00 -5°C° 0 mm 2 mps 588 mmHg 55%
    23:00 -5°C° 0 mm 2 mps 588 mmHg 54%
    Show more